Green Bay, WI

9:53 PM CDT on July 29, 2016 (GMT -0500)
Austin Straubel International

Weather History for KGRB - August, 2012

Change the Weather History Date:

Thursday, August 30, 2012

  Actual Average Record
Temperature  
Mean Temperature 75 °F 65 °F  
Max Temperature 88 °F 76 °F 93 °F (1969)
Min Temperature 62 °F 55 °F 38 °F (1915)
Degree Days  
Heating Degree Days 0 2  
Month to date heating degree days 13 37  
Since 1 June heating degree days 42 152  
Since 1 July heating degree days 13 60  
Cooling Degree Days 10 3  
Month to date cooling degree days 126 108  
Year to date cooling degree days 740 359  
Since 1 June cooling degree days 677 341  
Growing Degree Days 25 (Base 50)    
Moisture  
Dew Point 64 °F    
Average Humidity 70    
Maximum Humidity 90    
Minimum Humidity 50    
Precipitation  
Precipitation 0.00 in 0.10 in 1.28 in (1997)
Month to date precipitation 3.66 3.26  
Year to date precipitation 21.93 20.29  
Snow  
Snow 0.00 in 0.00 in 0.00 in ()
Month to date snowfall 0.0 0.0  
Since 1 June snowfall 0.0 0.0  
Since 1 July snowfall 0.0 0.0  
Snow Depth 0.00 in    
Sea Level Pressure  
Sea Level Pressure 29.88 in    
Wind  
Wind Speed 9 mph (SSW)    
Max Wind Speed 16 mph    
Max Gust Speed 30 mph    
Visibility 10 miles    
Events      
T = Trace of Precipitation, MM = Missing Value Source: NWS Daily Summary

Daily Weather History Graph

Daily Weather History Graph

Search for Another Location

Airport or City:

Trip Planner

Search our weather history database for the weather conditions in past years. The results will help you decide how hot, cold, wet, or windy it might be!

Date:

Astronomy

Aug. 30, 2012 Rise Set
Actual Time 6:13 AM CDT 7:31 PM CDT
Civil Twilight 5:43 AM CDT 8:01 PM CDT
Nautical Twilight 5:07 AM CDT 8:37 PM CDT
Astronomical Twilight 4:28 AM CDT 9:16 PM CDT
Moon 6:44 PM CDT 5:14 AM CDT
Length of Visible Light 14h 18m
Length of Day
13h 18m
Waxing Gibbous, 99% of the Moon is Illuminated
Aug 30
Waxing Gibbous
Aug 31
Full
Sep 8
Last Quarter
Sep 15
New
Sep 22
First Quarter

Hourly Weather History & Observations

Time (CDT) Temp. Heat Index Dew Point Humidity Pressure Visibility Wind Dir Wind Speed Gust Speed Precip Events Conditions
12:53 AM 64.0 °F - 57.0 °F 78% 29.96 in 10.0 mi South 4.6 mph - N/A   Clear
1:53 AM 63.0 °F - 57.0 °F 81% 29.96 in 10.0 mi South 5.8 mph - N/A   Clear
2:53 AM 63.0 °F - 57.0 °F 81% 29.95 in 10.0 mi South 4.6 mph - N/A   Clear
3:53 AM 63.0 °F - 57.0 °F 81% 29.94 in 10.0 mi South 4.6 mph - N/A   Clear
4:53 AM 63.0 °F - 57.9 °F 84% 29.93 in 9.0 mi South 4.6 mph - N/A   Clear
5:53 AM 63.0 °F - 59.0 °F 87% 29.93 in 8.0 mi South 5.8 mph - N/A   Clear
6:53 AM 66.9 °F - 62.1 °F 84% 29.94 in 8.0 mi South 6.9 mph - N/A   Clear
7:53 AM 73.0 °F - 63.0 °F 71% 29.93 in 9.0 mi SSW 11.5 mph - N/A   Clear
8:53 AM 75.0 °F - 64.9 °F 71% 29.91 in 10.0 mi SSW 13.8 mph 19.6 mph N/A   Clear
9:53 AM 78.1 °F - 64.9 °F 64% 29.92 in 10.0 mi SSW 10.4 mph 23.0 mph N/A   Clear
10:53 AM 81.0 °F 83.0 °F 66.0 °F 60% 29.92 in 10.0 mi SSW 13.8 mph 21.9 mph N/A   Clear
11:53 AM 82.9 °F 85.0 °F 66.0 °F 56% 29.90 in 10.0 mi SSW 16.1 mph 26.5 mph N/A   Clear
12:53 PM 86.0 °F 88.8 °F 66.9 °F 53% 29.88 in 10.0 mi SSW 12.7 mph 24.2 mph N/A   Clear
1:53 PM 87.1 °F 90.6 °F 68.0 °F 53% 29.86 in 10.0 mi SSW 13.8 mph 25.3 mph N/A   Clear
2:53 PM 88.0 °F 91.4 °F 68.0 °F 51% 29.83 in 10.0 mi South 13.8 mph 25.3 mph N/A   Clear
3:53 PM 88.0 °F 90.7 °F 66.9 °F 49% 29.81 in 10.0 mi SSW 16.1 mph 29.9 mph N/A   Clear
4:53 PM 88.0 °F 90.3 °F 66.0 °F 48% 29.80 in 10.0 mi SSW 13.8 mph 26.5 mph N/A   Clear
5:53 PM 87.1 °F 89.2 °F 66.0 °F 49% 29.81 in 10.0 mi SSW 12.7 mph - N/A   Clear
6:53 PM 82.9 °F 85.4 °F 66.9 °F 58% 29.81 in 10.0 mi SSW 6.9 mph - N/A   Clear
7:53 PM 79.0 °F - 66.0 °F 64% 29.83 in 10.0 mi SSW 5.8 mph - N/A   Clear
8:53 PM 78.1 °F - 64.9 °F 64% 29.84 in 10.0 mi SSW 5.8 mph - N/A   Clear
9:53 PM 78.1 °F - 64.9 °F 64% 29.84 in 10.0 mi SSW 6.9 mph - N/A   Clear
10:53 PM 78.1 °F - 64.9 °F 64% 29.85 in 10.0 mi SSW 5.8 mph - N/A   Clear
11:53 PM 77.0 °F - 64.9 °F 66% 29.86 in 10.0 mi SSW 6.9 mph - N/A   Clear